Location: Helsinki
(60.1699°N, 24.9384°E)
Time: 15:09:35
(UTC+02:00)

Tiros 1 - Pass Details

Date: 11 October 2022
Orbit: 629 x 662 km, 48.4° (Epoch: 07 December)

Event Time Altitude Azimuth Distance (km) Brightness Sun altitude
Rises 22:14:06 0° 214° (SSW) 2,986 - -28.0°
Reaches altitude 10° 22:17:24 10° 190° (S) 2,078 - -28.3°
Maximum altitude 22:19:58 15° 158° (SSE) 1,795 - -28.5°
Drops below altitude 10° 22:22:33 10° 125° (SE) 2,081 - -28.8°
Sets 22:25:51 0° 102° (ESE) 2,993 - -29.1°
